GFSFLT2_con_3kmhel_027.txt.gz
Helicity
416 329 373 256 137 120 94 63 102 103 58 52 101 57 75 71 75 71 58 43 44 60 63 55 74 83 73 54 31 14 12 13
484 445 420 276 232 64 36 89 79 84 39 84 102 76 78 85 79 82 78 74 78 74 106 117 102 88 72 54 36 28 16 15
238 339 405 610 392 33 62 83 65 13 81 112 100 74 74 76 71 68 73 107 100 127 129 118 111 100 89 81 59 32 24 21
324 485 569 556 556 224 123 47 52 18 68 91 106 87 82 62 72 83 118 140 146 142 137 107 75 59 64 78 46 43 46 51
336 558 689 531 641 439 287 18 -10 15 86 99 83 75 73 77 66 86 102 116 104 102 90 86 93 91 96 89 80 71 70 81
111 96 128 85 -33 -60 -111 14 30 38 43 23 51 74 77 75 96 101 97 96 99 88 89 103 124 121 116 118 103 79 75 90
12 -33 -47 -27 -24 53 18 20 20 17 25 46 44 51 72 91 96 97 95 79 80 80 95 104 113 124 121 114 109 102 95 95
-22 15 23 20 -9 -25 -30 -40 -21 13 32 20 21 51 87 91 90 83 82 74 71 86 98 113 124 120 129 127 118 107 94 90
-7 -17 -16 -20 -24 -34 -18 36 28 20 15 21 49 71 74 86 82 79 74 79 107 102 114 124 120 120 129 123 119 114 105 115
-2 -2 13 -1 -14 -1 15 4 11 6 11 39 55 54 78 80 72 81 88 97 88 90 102 104 105 105 106 111 119 122 123 133
11 5 -8 -34 -71 -74 -30 -11 2 18 46 63 69 78 77 75 84 100 112 118 122 106 88 81 86 87 90 97 101 107 145 138
13 6 -4 -20 -70 -35 -14 -17 14 41 56 69 96 97 101 100 121 141 145 147 132 111 114 102 77 71 83 97 122 175 168 130
5 -10 -27 -41 -42 -42 -34 -12 37 46 61 87 115 120 117 137 160 173 163 146 144 139 128 103 77 48 39 72 136 179 160 146
29 34 43 45 27 26 42 74 94 102 122 130 137 148 151 162 177 180 168 178 169 144 122 114 94 35 7 65 107 151 164 170
5 6 32 47 74 112 131 175 145 152 170 169 178 182 199 193 183 184 191 183 167 140 109 92 91 145 99 144 148 181 194 185
30 53 90 90 125 143 176 179 189 170 173 196 224 212 235 243 225 221 206 180 168 151 109 66 88 110 140 184 206 211 195 195
60 73 105 133 155 164 174 175 209 202 243 293 267 254 232 250 257 250 237 237 254 268 195 80 78 132 146 165 179 200 212 211
81 97 105 142 174 212 190 226 271 273 304 345 312 297 285 271 275 278 284 311 303 200 191 115 88 158 180 181 179 187 200 212
145 132 152 188 209 257 242 238 313 322 383 406 403 367 314 328 329 316 307 290 199 173 182 125 160 166 176 182 177 174 193 212
187 192 182 226 263 241 273 258 311 331 328 354 405 386 340 350 333 325 370 260 148 174 177 136 181 193 177 170 174 178 175 163

GFSFLT2_con_3kmhel_030.txt.gz
Helicity
465 468 341 257 203 163 117 114 97 68 97 103 117 121 77 74 45 44 47 54 65 63 47 47 49 56 39 21 -5 -36 17 15
491 367 291 220 304 78 88 120 28 113 108 144 130 120 88 60 54 54 50 68 77 78 68 66 74 52 43 22 -4 -35 19 20
612 557 491 454 356 301 57 41 56 107 121 92 59 76 57 20 94 67 85 88 99 92 87 77 59 57 40 12 -37 23 24 27
453 503 422 334 209 148 0 43 31 74 94 81 72 81 77 72 77 94 99 119 99 102 76 31 -8 23 22 5 31 27 33 35
293 404 414 364 219 83 110 47 102 80 40 65 34 79 59 55 58 52 55 59 56 45 21 27 34 32 40 39 43 33 42 44
240 342 540 628 787 517 199 161 109 -4 60 15 36 65 55 45 42 48 52 46 54 36 36 50 59 62 61 53 47 47 49 48
156 266 399 217 131 113 38 -29 -2 35 14 25 22 41 48 53 51 49 50 42 41 42 47 57 69 59 53 51 49 50 49 53
22 68 38 -38 -87 -53 56 24 9 25 7 4 30 47 47 54 59 55 44 37 36 43 52 63 57 51 53 50 58 58 62 61
26 7 0 -23 0 21 5 5 1 2 17 21 36 31 43 50 45 43 43 49 66 55 52 53 48 52 53 46 42 50 68 92
14 10 5 -3 -7 -39 -34 -43 -34 -39 33 28 15 33 39 32 36 46 57 62 56 64 58 66 57 50 53 51 44 57 58 64
11 2 5 4 -15 -35 -49 -57 -59 -6 -7 11 22 26 35 29 41 65 61 75 77 79 82 70 67 68 60 33 18 37 33 69
26 12 6 -26 -58 -84 -83 -56 -37 -2 -1 9 34 40 44 44 56 72 77 87 88 102 105 102 94 75 49 50 23 57 89 77
25 16 -6 -35 -51 -50 -35 -33 -13 -10 16 31 56 57 58 69 76 90 89 91 119 124 135 123 120 99 66 30 21 85 93 118
10 8 3 -14 -34 -38 -31 -15 8 21 42 58 72 82 75 99 112 110 112 141 147 157 145 144 146 99 68 57 54 185 148 98
1 -4 -12 -18 -16 -7 3 49 65 70 86 106 90 106 112 117 134 162 174 157 163 155 147 162 169 146 82 81 109 121 259 252
5 6 13 15 13 35 58 68 69 77 90 101 133 131 137 135 148 178 196 196 190 184 197 172 70 95 118 55 101 141 159 167
21 16 18 40 58 62 66 55 72 108 100 114 142 161 175 166 182 195 207 215 212 211 177 132 80 81 101 152 120 131 135 159
37 35 35 42 62 68 72 64 86 154 159 183 202 234 254 228 238 237 228 217 217 222 192 153 62 106 95 120 123 144 140 154
67 70 75 84 103 89 107 107 163 138 195 223 254 256 308 285 279 277 290 248 275 250 214 173 129 90 129 117 140 168 164 155
94 99 93 117 132 138 154 143 198 178 192 299 305 330 415 369 382 227 253 350 263 262 161 179 120 142 158 139 164 166 166 186

GFSFLT2_con_3kmhel_033.txt.gz
Helicity
367 242 199 286 248 175 156 145 103 89 79 108 103 102 92 48 71 67 65 58 37 30 24 30 15 -2 -1 -19 -31 -36 -2 23
430 413 318 260 202 227 208 200 130 119 77 108 107 84 92 59 71 74 71 60 50 38 37 31 17 20 -10 -52 -59 -60 3 44
459 471 438 269 229 122 145 135 118 126 90 69 55 74 43 48 86 68 76 61 65 53 38 22 28 0 -40 -48 2 -6 8 47
407 467 547 699 518 469 265 171 181 1 40 73 34 51 27 60 80 81 72 78 70 45 6 -1 -3 8 9 -10 7 4 23 79
648 777 1014 498 880 442 463 86 -42 36 46 61 54 93 77 59 40 42 35 43 31 10 -4 -13 21 20 28 31 18 19 26 91
385 321 374 307 314 135 20 -24 5 70 49 -27 61 55 22 16 -31 37 29 12 30 13 26 26 26 40 39 27 17 17 18 92
263 332 281 252 241 193 140 264 191 10 -47 -2 10 -2 11 -15 27 36 31 53 24 21 26 25 29 28 24 21 29 34 33 38
274 249 299 418 330 399 357 205 26 -64 -13 23 33 19 2 16 34 41 56 30 28 22 35 28 29 39 29 22 18 27 43 20
92 77 64 112 248 65 55 61 41 20 -16 -44 -2 5 -6 31 43 60 46 50 50 70 44 50 40 35 47 32 35 23 50 53
-42 -4 -25 -37 -79 21 -31 -8 -9 -35 -23 -15 -1 -17 4 41 46 43 55 54 45 51 51 50 51 50 62 66 64 51 53 50
-6 -6 -5 -29 -6 -30 -59 -59 -65 -37 -29 -36 -14 -8 38 40 38 53 57 48 59 58 65 67 87 75 86 99 94 65 52 70
8 2 4 -9 -29 -29 -41 -42 -37 -21 -8 -39 -8 5 39 35 54 65 43 61 73 68 91 91 97 109 111 127 106 75 12 55
26 13 5 -4 -20 -25 -30 -33 -38 -37 -25 -18 43 23 43 46 60 66 58 78 85 124 120 116 118 122 101 30 73 148 108 69
26 25 7 -6 -10 -15 -33 -28 -18 11 -6 4 49 54 67 65 73 81 76 109 167 144 127 121 126 127 79 95 99 150 175 136
30 26 29 13 -13 -9 -18 -24 -33 11 25 42 58 58 75 84 83 98 111 132 163 154 141 136 150 129 112 125 109 125 209 214
13 14 14 20 -1 -4 17 25 43 45 55 72 97 87 90 93 112 110 150 145 170 167 161 163 185 182 162 105 57 116 133 159
36 17 20 16 45 8 45 38 49 47 76 89 84 118 107 144 153 151 180 175 186 196 204 194 193 195 204 135 140 95 89 117
48 32 32 31 53 69 44 99 52 70 180 118 89 193 179 185 193 235 247 191 245 160 222 198 211 158 151 115 139 146 128 144
54 50 43 53 54 71 88 91 75 65 153 237 158 176 266 221 200 246 303 321 439 484 273 252 234 156 88 143 109 123 149 168
81 68 61 74 80 109 79 98 91 117 213 238 299 259 220 166 286 393 426 473 442 370 345 221 175 64 128 193 154 209 175 158

GFSFLT2_con_3kmhel_036.txt.gz
Helicity
250 254 208 178 175 160 162 166 177 153 144 95 86 82 86 74 56 43 39 25 19 12 1 1 -4 -14 -7 28 58 57 36 63
254 209 170 237 196 198 212 199 162 170 153 94 95 97 95 87 57 42 38 34 25 15 13 6 -11 -30 -38 -18 -1 -12 72 122
383 389 198 186 128 170 185 195 183 195 100 45 70 69 66 48 38 44 46 34 27 13 7 -3 -28 -54 -39 -20 -11 20 114 71
405 389 309 401 260 333 199 78 151 135 77 55 118 43 32 53 58 67 52 30 11 2 1 1 0 -46 -19 -15 12 18 53 53
390 417 450 521 580 566 435 198 208 178 103 145 36 36 44 69 61 46 37 11 -9 -12 -12 6 -4 55 23 23 0 6 76 68
474 607 726 634 861 537 719 591 417 111 161 0 35 5 24 34 28 27 -12 -30 11 -20 11 17 25 24 4 7 7 17 45 56
381 537 652 743 576 332 345 343 393 60 38 -10 -7 -22 -15 21 -9 -11 -27 -35 13 37 25 6 14 27 10 12 11 15 83 101
355 515 482 467 269 192 170 21 -69 -34 3 -42 -63 -36 0 24 21 8 1 50 25 28 17 19 13 36 32 20 26 40 35 136
222 271 287 160 183 101 43 20 189 34 -147 -131 -4 27 18 13 46 7 68 10 55 82 85 62 64 78 69 43 62 46 65 78
34 42 89 132 188 176 29 -116 -108 -36 -52 -47 -38 -36 -25 0 -35 48 55 117 116 76 65 47 60 58 67 65 101 109 120 106
4 20 -16 -58 -10 -33 -77 -65 -53 -29 -34 -32 -42 -23 2 -23 -44 73 142 113 65 79 51 78 105 92 108 118 121 99 139 94
-34 -70 -69 -91 -27 -71 -79 -118 -67 -54 -33 -19 -21 -26 3 -2 -4 167 137 82 90 103 118 140 140 92 66 159 134 107 95 135
-29 -75 -102 -82 -41 -28 -72 -71 -62 -45 -64 33 17 -24 66 65 11 186 123 80 111 113 198 205 133 175 162 115 139 171 130 140
15 13 -2 -17 -33 -62 -58 -33 -48 -41 -8 -8 76 -24 144 100 50 184 133 87 138 214 225 189 146 185 167 163 135 181 183 124
31 78 71 46 23 -16 -54 -5 -20 -11 70 34 1 54 126 128 96 164 166 102 204 265 232 188 178 234 179 207 225 226 157 189
58 70 70 39 3 -22 22 50 25 3 134 105 90 93 104 128 131 135 163 149 205 251 230 188 210 255 213 188 181 191 194 166
64 59 91 80 46 -22 33 82 40 34 63 161 144 175 144 132 125 202 202 230 271 302 230 185 245 299 310 315 250 117 115 177
105 56 80 59 112 67 5 104 77 45 138 172 250 170 148 220 226 308 406 372 350 353 361 393 446 405 472 314 252 138 167 229
130 109 55 64 94 144 111 44 111 79 63 206 298 206 308 362 372 386 477 398 367 456 454 544 474 413 474 247 142 128 199 202
215 183 131 84 131 167 191 136 126 120 35 109 307 293 389 386 326 333 404 542 482 432 549 502 488 343 266 184 120 172 266 228

GFSFLT2_con_3kmhel_042.txt.gz
Helicity
198 157 273 270 114 135 178 173 180 169 147 145 116 114 88 66 38 27 28 30 50 70 73 123 129 65 48 33 11 -11 -45 -44
137 233 586 555 227 143 287 221 196 195 202 177 140 116 78 58 34 11 16 13 34 58 92 131 170 98 49 52 32 1 -24 -30
142 287 269 288 101 257 290 266 204 201 178 179 171 101 71 59 28 8 -4 14 28 62 93 114 133 80 30 54 17 -31 -35 -40
22 154 163 199 180 200 223 164 168 159 145 138 140 94 44 42 16 -8 8 11 22 48 66 77 84 53 24 42 9 -4 -16 -30
168 160 130 107 70 164 132 151 189 151 168 119 89 63 41 44 11 8 28 15 16 22 38 55 30 32 26 34 18 5 -15 -10
240 189 216 138 117 177 274 195 281 145 154 107 126 61 48 34 18 9 14 17 17 24 33 29 39 50 37 30 14 7 3 13
243 220 222 147 148 280 358 331 290 95 97 121 79 115 59 24 25 3 13 23 23 22 14 20 33 38 54 39 24 29 31 23
275 235 195 162 237 372 389 305 201 146 135 96 86 100 18 24 13 -16 8 36 11 11 6 25 27 40 55 54 38 42 43 36
281 282 189 178 262 535 329 385 367 352 206 151 203 36 22 24 -5 21 0 16 -4 19 46 50 45 40 56 80 82 67 52 42
376 277 171 274 368 441 284 404 370 255 214 215 84 37 37 25 32 22 -14 -8 12 43 65 52 54 53 68 88 98 101 79 70
238 329 335 351 238 192 110 191 252 253 105 177 141 108 76 22 53 -26 -15 36 66 96 92 115 80 67 77 98 117 114 107 113
97 126 155 131 125 18 24 58 56 -91 -78 -44 38 -5 -51 -47 -29 21 104 122 131 135 132 107 116 104 113 132 114 98 154 161
104 153 103 96 7 -17 -73 -84 -106 -143 -139 -158 -70 -15 -61 -36 38 88 124 160 147 130 150 145 146 179 226 193 174 161 162 168
28 35 55 39 -3 -61 -81 -86 -145 -123 -168 -211 -95 -45 -33 -22 51 43 102 116 157 182 201 212 203 236 263 260 253 255 230 198
15 -1 11 10 -28 -80 -63 -97 -156 -185 -249 -256 -180 -77 -43 -26 -1 30 99 139 179 206 236 277 296 249 259 265 337 292 295 255
2 -26 -36 -16 -56 -107 -142 -145 -154 -200 -203 -178 -137 -66 -28 6 41 66 105 148 165 206 238 275 318 409 297 207 379 388 313 240
12 -27 -56 -61 -61 -84 -123 -154 -187 -190 -198 -147 -107 -82 -15 50 72 116 119 143 161 225 278 353 366 449 408 305 347 342 372 395
42 35 -30 -63 -36 -53 -48 -37 -47 -101 -124 -70 -54 -54 -37 34 85 138 163 189 218 272 316 393 430 426 397 398 371 383 480 392
119 134 95 37 28 9 17 27 18 3 -28 -23 -2 0 36 108 167 169 134 187 255 340 384 405 403 387 370 361 364 374 366 307
193 189 151 148 135 93 59 40 21 -21 -26 20 70 81 111 239 222 178 192 202 264 391 449 427 411 370 332 346 386 310 298 218